Regional Weather Roundup
Issued by NWS

Home | Current Version | Previous Version | Graphics & Text | Print | Product List | Glossary On
Versions: 1 2 3 4 5 6 7 8 9 10 11 12 13 14 15 16 17 18 19 20 21 22 23 24 25 26 27 28 29 30 31 32 33 34 35 36 37 38 39 40 41 42 43 44 45 46 47 48 49 50
000
ASUS45 KBOI 071610
RWRID

IDAHO REGIONAL WEATHER ROUNDUP
NATIONAL WEATHER SERVICE BOISE ID
900 AM MST WED DEC 07 2016

NOTE: "FAIR" INDICATES FEW OR NO CLOUDS BELOW 12000 FEET
WITH NO SIGNIFICANT WEATHER AND/OR OBSTRUCTIONS TO VISIBILITY

IDZ012-014-071700-
SOUTHWEST IDAHO


CITY           SKY/WX    TMP DP  RH WIND       PRES   REMARKS
BOISE          CLOUDY    16  12  84 SE7       30.33R WCI   6
CALDWELL       CLEAR      9   7  92 MISG      30.37R
MOUNTAIN HOME  FOG       16  15  95 VRB2      30.34R VSB 1/4
$$

IDZ016-017-071700-
SOUTHCENTRAL IDAHO


CITY           SKY/WX    TMP DP  RH WIND       PRES   REMARKS
BURLEY         CLOUDY    18  15  88 W6        30.25R WCI  10
JEROME         CLOUDY    18  15  88 W6        30.27R FOG     WCI  10
TWIN FALLS     PTCLDY    13   9  84 S8        30.27R WCI   2
$$

IDZ019>023-071700-
SOUTHEAST IDAHO


CITY           SKY/WX    TMP DP  RH WIND       PRES   REMARKS
IDAHO FALLS    PTCLDY     6   1  80 CALM      30.24R
POCATELLO      LGT SNOW  17  13  84 CALM      30.26R FOG
REXBURG        CLEAR     -1  -6  79 NE6       30.23R WCI -13
$$

IDZ006-010-011-018-031-032-071700-
CENTRAL IDAHO MOUNTAINS


CITY           SKY/WX    TMP DP  RH WIND       PRES   REMARKS
MCCALL         CLOUDY     9   5  84 E3        30.17R
HAILEY         PTCLDY     0  -6  78 W5        30.21R WCI -10
STANLEY          N/A     -7 -11  83 CALM      30.15R
SALMON         CLOUDY    12   9  85 CALM      30.27R
CHALLIS        CLOUDY    11   8  88 CALM      30.19R
$$

IDZ002-004-006-007-026-071700-
NORTHERN IDAHO


CITY           SKY/WX    TMP DP  RH WIND       PRES   REMARKS
LEWISTON       CLOUDY    21  14  74 CALM      30.44R
LOWELL         NOT AVBL
COEUR D`ALENE  CLOUDY    21  12  68 N10       30.39R WCI  10
MULLAN PASS    CLOUDY     4   0  83 CALM      30.12R
$$



USA.gov is the U.S. government's official web portal to all federal, state and local government web resources and services.